| time (UTC) | temp F | wind direction | speed MPH | gust MPH | rain 1hr in | rain 24hr in | rain mn in | humidity % | barometer mb |
| 20260504222102 | 63 | 284 | 5.0 | 6.0 | 0.00 | 0.02 | 0.02 | 56 | 1006.4 |
| 20260504221559 | 62 | 309 | 3.0 | 5.0 | 0.00 | 0.02 | 0.02 | 56 | 1006.3 |
| 20260504221056 | 63 | 289 | 3.0 | 5.0 | 0.00 | 0.02 | 0.02 | 56 | 1006.1 |
| 20260504220553 | 62 | 313 | 7.0 | 9.0 | 0.00 | 0.02 | 0.02 | 55 | 1006.3 |
| 20260504220050 | 63 | 282 | 7.0 | 9.0 | 0.00 | 0.02 | 0.02 | 56 | 1006.4 |
| 20260504215546 | 62 | 251 | 7.0 | 9.0 | 0.00 | 0.02 | 0.02 | 55 | 1006.2 |
| 20260504215044 | 62 | 270 | 8.0 | 10.0 | 0.00 | 0.02 | 0.02 | 57 | 1006.4 |
| 20260504214539 | 61 | 266 | 8.0 | 10.0 | 0.00 | 0.02 | 0.02 | 57 | 1006.3 |
| 20260504214036 | 62 | 261 | 7.0 | 9.0 | 0.00 | 0.02 | 0.02 | 58 | 1006.2 |
| 20260504213532 | 61 | 281 | 8.0 | 11.0 | 0.00 | 0.02 | 0.02 | 58 | 1006.1 |
| 20260504213030 | 61 | 282 | 3.0 | 5.0 | 0.00 | 0.02 | 0.02 | 59 | 1006.5 |
| 20260504212526 | 61 | 277 | 6.0 | 8.0 | 0.00 | 0.02 | 0.02 | 59 | 1006.2 |
| 20260504212023 | 62 | 284 | 7.0 | 8.0 | 0.00 | 0.02 | 0.02 | 59 | 1006.3 |
| 20260504211520 | 62 | 269 | 8.0 | 9.0 | 0.00 | 0.02 | 0.02 | 59 | 1006.2 |
| 20260504211017 | 61 | 303 | 7.0 | 8.0 | 0.00 | 0.02 | 0.02 | 60 | 1006.3 |
| 20260504210514 | 61 | 263 | 11.0 | 15.0 | 0.00 | 0.02 | 0.02 | 60 | 1006.3 |
| 20260504210011 | 62 | 286 | 6.0 | 7.0 | 0.00 | 0.02 | 0.02 | 60 | 1006.2 |
| 20260504205509 | 62 | 325 | 7.0 | 9.0 | 0.00 | 0.02 | 0.02 | 59 | 1005.9 |
| 20260504205006 | 62 | 308 | 3.0 | 3.0 | 0.00 | 0.02 | 0.02 | 60 | 1006.2 |
| 20260504204504 | 61 | 349 | 5.0 | 8.0 | 0.00 | 0.02 | 0.02 | 62 | 1006.1 |
| 20260504204003 | 61 | 261 | 5.0 | 6.0 | 0.00 | 0.02 | 0.02 | 61 | 1006.4 |
| 20260504203500 | 61 | 267 | 11.0 | 15.0 | 0.00 | 0.02 | 0.02 | 62 | 1006.0 |
| 20260504202956 | 61 | 274 | 8.0 | 13.0 | 0.00 | 0.02 | 0.02 | 62 | 1005.9 |
| 20260504202453 | 61 | 303 | 8.0 | 11.0 | 0.00 | 0.02 | 0.02 | 63 | 1005.8 |
| 20260504201950 | 62 | 294 | 7.0 | 8.0 | 0.00 | 0.02 | 0.02 | 62 | 1005.8 |
| 20260504201447 | 61 | 299 | 9.0 | 10.0 | 0.00 | 0.02 | 0.02 | 62 | 1006.1 |
| 20260504200945 | 62 | 259 | 11.0 | 13.0 | 0.00 | 0.02 | 0.02 | 61 | 1006.1 |
| 20260504200441 | 62 | 270 | 9.0 | 15.0 | 0.00 | 0.02 | 0.02 | 62 | 1006.0 |
| 20260504195938 | 61 | 329 | 9.0 | 13.0 | 0.00 | 0.02 | 0.02 | 61 | 1005.9 |
| 20260504195434 | 61 | 281 | 5.0 | 9.0 | 0.00 | 0.02 | 0.02 | 62 | 1005.8 |
| 20260504194930 | 61 | 342 | 12.0 | 17.0 | 0.00 | 0.02 | 0.02 | 62 | 1005.9 |
| 20260504194426 | 62 | 296 | 4.0 | 5.0 | 0.00 | 0.02 | 0.02 | 65 | 1006.0 |
| 20260504193923 | 60 | 287 | 6.0 | 8.0 | 0.00 | 0.02 | 0.02 | 67 | 1006.1 |
| 20260504193420 | 60 | 296 | 7.0 | 10.0 | 0.00 | 0.02 | 0.02 | 67 | 1006.3 |
| 20260504192919 | 60 | 284 | 8.0 | 11.0 | 0.00 | 0.02 | 0.02 | 68 | 1006.2 |
| 20260504192415 | 59 | 272 | 8.0 | 10.0 | 0.00 | 0.02 | 0.02 | 69 | 1006.2 |
| 20260504191914 | 59 | 278 | 9.0 | 13.0 | 0.00 | 0.02 | 0.02 | 69 | 1006.2 |
| 20260504191412 | 58 | 231 | 7.0 | 9.0 | 0.00 | 0.02 | 0.02 | 78 | 1006.3 |
| 20260504190907 | 58 | 232 | 6.0 | 8.0 | 0.00 | 0.02 | 0.02 | 82 | 1006.3 |
| 20260504190403 | 58 | 216 | 5.0 | 6.0 | 0.00 | 0.02 | 0.02 | 78 | 1006.3 |
| 20260504185900 | 57 | 229 | 4.0 | 6.0 | 0.00 | 0.02 | 0.02 | 81 | 1006.5 |
| 20260504185357 | 57 | 231 | 4.0 | 5.0 | 0.00 | 0.02 | 0.02 | 81 | 1006.4 |
| 20260504184853 | 55 | 280 | 7.0 | 8.0 | 0.00 | 0.02 | 0.02 | 84 | 1006.4 |
| 20260504184348 | 54 | 254 | 4.0 | 5.0 | 0.00 | 0.02 | 0.02 | 89 | 1006.7 |
| 20260504183845 | 53 | 245 | 4.0 | 5.0 | 0.00 | 0.02 | 0.02 | 89 | 1006.7 |
| 20260504183343 | 53 | 278 | 5.0 | 6.0 | 0.00 | 0.02 | 0.02 | 90 | 1006.9 |
| 20260504182840 | 53 | 239 | 7.0 | 8.0 | 0.00 | 0.02 | 0.02 | 90 | 1006.8 |
| 20260504182337 | 52 | 274 | 4.0 | 5.0 | 0.00 | 0.02 | 0.02 | 89 | 1006.9 |
| 20260504181834 | 52 | 296 | 4.0 | 5.0 | 0.00 | 0.02 | 0.02 | 90 | 1007.1 |
| 20260504181331 | 51 | 245 | 3.0 | 3.0 | 0.05 | 0.02 | 0.02 | 90 | 1007.0 |
| 20260504180830 | 51 | 299 | 3.0 | 3.0 | 0.05 | 0.02 | 0.02 | 91 | 1007.0 |
| 20260504180328 | 51 | 305 | 5.0 | 6.0 | 0.05 | 0.02 | 0.02 | 90 | 1007.1 |
| 20260504175826 | 51 | 13 | 4.0 | 5.0 | 0.00 | 0.01 | 0.01 | 90 | 1007.4 |
| 20260504175322 | 52 | 337 | 3.0 | 3.0 | 0.07 | 0.01 | 0.01 | 89 | 1007.3 |
| 20260504174821 | 52 | 17 | 1.0 | 1.0 | 0.07 | 0.01 | 0.01 | 88 | 1007.2 |
| 20260504174318 | 53 | 303 | 4.0 | 5.0 | 0.00 | 0.00 | 0.00 | 86 | 1007.1 |
| 20260504173815 | 53 | 346 | 3.0 | 5.0 | 0.00 | 0.00 | 0.00 | 82 | 1007.3 |
| 20260504173311 | 54 | 289 | 5.0 | 7.0 | 0.00 | 0.00 | 0.00 | 78 | 1007.0 |
| 20260504172809 | 55 | 295 | 8.0 | 9.0 | 0.00 | 0.00 | 0.00 | 73 | 1007.0 |
| 20260504172305 | 56 | 145 | 2.0 | 3.0 | 0.00 | 0.00 | 0.00 | 70 | 1006.9 |
| 20260504171801 | 57 | 317 | 5.0 | 8.0 | 0.00 | 0.00 | 0.00 | 67 | 1006.7 |
| 20260504171258 | 58 | 274 | 11.0 | 14.0 | 0.00 | 0.00 | 0.00 | 63 | 1006.7 |
| 20260504170755 | 58 | 282 | 7.0 | 8.0 | 0.00 | 0.00 | 0.00 | 65 | 1006.4 |
| 20260504170252 | 57 | 353 | 9.0 | 11.0 | 0.00 | 0.00 | 0.00 | 64 | 1006.3 |
| 20260504160211 | 56 | 221 | 3.0 | 5.0 | 0.00 | 0.00 | 0.00 | 62 | 1006.1 |
| 20260504151139 | 55 | 211 | 9.0 | 10.0 | 0.00 | 0.00 | 0.00 | 60 | 1006.7 |
| 20260504150636 | 55 | 231 | 4.0 | 6.0 | 0.00 | 0.00 | 0.00 | 60 | 1007.0 |
| 20260504150133 | 55 | 249 | 9.0 | 10.0 | 0.00 | 0.00 | 0.00 | 57 | 1007.2 |
| 20260504141101 | 52 | 230 | 6.0 | 7.0 | 0.00 | 0.00 | 0.00 | 55 | 1008.0 |
| 20260504140558 | 53 | 241 | 7.0 | 8.0 | 0.00 | 0.00 | 0.00 | 56 | 1008.0 |
| 20260504130522 | 53 | 238 | 7.0 | 10.0 | 0.00 | 0.00 | 0.00 | 57 | 1008.3 |
| 20260504110410 | 38 | 230 | 4.0 | 5.0 | 0.00 | 0.00 | 0.00 | 84 | 1009.1 |
| 20260504100326 | 35 | 289 | 2.0 | 3.0 | 0.00 | 0.00 | 0.00 | 89 | 1008.8 |
| 20260504081720 | 35 | 316 | 2.0 | 2.0 | 0.00 | 0.00 | 0.00 | 87 | 1008.2 |
| 20260504081216 | 35 | 274 | 3.0 | 3.0 | 0.00 | 0.00 | 0.00 | 88 | 1008.1 |
| 20260504080712 | 35 | 301 | 1.0 | 2.0 | 0.00 | 0.00 | 0.00 | 86 | 1008.0 |
| 20260504080209 | 35 | 321 | 2.0 | 2.0 | 0.00 | 0.00 | 0.00 | 86 | 1008.2 |
| 20260504070137 | 37 | 311 | 1.0 | 2.0 | 0.00 | 0.00 | 0.00 | 81 | 1008.0 |
| 20260504050525 | 42 | 284 | 3.0 | 5.0 | 0.00 | 0.00 | 0.00 | 67 | 1007.2 |
| 20260504050022 | 42 | 275 | 5.0 | 6.0 | 0.00 | 0.00 | 0.00 | 65 | 1007.1 |
| 20260504045519 | 42 | 278 | 5.0 | 6.0 | 0.00 | 0.00 | 0.00 | 66 | 1007.1 |
| 20260504045015 | 42 | 262 | 4.0 | 6.0 | 0.00 | 0.00 | 0.00 | 66 | 1007.2 |
| 20260504044512 | 42 | 340 | 2.0 | 2.0 | 0.00 | 0.00 | 0.00 | 66 | 1007.1 |
| 20260504044009 | 41 | 288 | 2.0 | 2.0 | 0.00 | 0.00 | 0.00 | 67 | 1007.1 |
| 20260504043506 | 41 | 289 | 2.0 | 2.0 | 0.00 | 0.00 | 0.00 | 68 | 1007.1 |
| 20260504043004 | 42 | 262 | 5.0 | 6.0 | 0.00 | 0.00 | 0.00 | 66 | 1007.0 |
| 20260504042500 | 41 | 290 | 3.0 | 3.0 | 0.00 | 0.00 | 0.00 | 68 | 1007.0 |
| 20260504041957 | 41 | 291 | 3.0 | 3.0 | 0.00 | 0.00 | 0.00 | 68 | 1007.2 |
| 20260504041453 | 41 | 304 | 3.0 | 3.0 | 0.00 | 0.00 | 0.00 | 68 | 1007.1 |
| 20260504040949 | 41 | 290 | 3.0 | 3.0 | 0.00 | 0.00 | 0.00 | 69 | 1007.1 |
| 20260504040447 | 41 | 334 | 3.0 | 3.0 | 0.00 | 0.00 | 0.00 | 69 | 1007.0 |
| 20260504035943 | 41 | 294 | 5.0 | 5.0 | 0.00 | 0.41 | 0.41 | 69 | 1007.0 |
| 20260504035441 | 41 | 280 | 6.0 | 8.0 | 0.00 | 0.41 | 0.41 | 69 | 1006.9 |
| 20260504034937 | 41 | 356 | 1.0 | 1.0 | 0.00 | 0.41 | 0.41 | 70 | 1006.8 |
| 20260504034435 | 41 | 20 | 2.0 | 2.0 | 0.00 | 0.41 | 0.41 | 70 | 1006.7 |
| 20260504033931 | 41 | 331 | 1.0 | 2.0 | 0.00 | 0.41 | 0.41 | 70 | 1006.8 |
| 20260504033429 | 41 | 300 | 3.0 | 3.0 | 0.00 | 0.41 | 0.41 | 70 | 1006.6 |
| 20260504032926 | 41 | 257 | 3.0 | 3.0 | 0.00 | 0.41 | 0.41 | 69 | 1006.8 |
| 20260504032423 | 41 | 339 | 1.0 | 2.0 | 0.00 | 0.41 | 0.41 | 69 | 1006.7 |
| 20260504031920 | 41 | 316 | 2.0 | 2.0 | 0.00 | 0.41 | 0.41 | 69 | 1006.5 |
| 20260504031417 | 41 | 16 | 0.0 | 1.0 | 0.00 | 0.41 | 0.41 | 68 | 1006.7 |
| 20260504030913 | 41 | 26 | 4.0 | 5.0 | 0.00 | 0.41 | 0.41 | 67 | 1006.3 |
| 20260504030410 | 41 | 358 | 1.0 | 1.0 | 0.00 | 0.41 | 0.41 | 69 | 1006.4 |
| 20260504025906 | 41 | 319 | 2.0 | 3.0 | 0.00 | 0.41 | 0.41 | 68 | 1006.5 |
| 20260504025404 | 41 | 313 | 5.0 | 8.0 | 0.00 | 0.41 | 0.41 | 68 | 1006.2 |
| 20260504024900 | 41 | 292 | 3.0 | 5.0 | 0.00 | 0.41 | 0.41 | 69 | 1006.4 |
| 20260504024356 | 42 | 313 | 1.0 | 2.0 | 0.00 | 0.41 | 0.41 | 68 | 1006.5 |
| 20260504023854 | 41 | 314 | 3.0 | 3.0 | 0.00 | 0.41 | 0.41 | 68 | 1006.4 |
| 20260504023350 | 42 | 330 | 1.0 | 1.0 | 0.00 | 0.41 | 0.41 | 67 | 1006.4 |
| 20260504022846 | 42 | 321 | 5.0 | 8.0 | 0.00 | 0.41 | 0.41 | 67 | 1006.3 |
| 20260504022343 | 42 | 359 | 6.0 | 9.0 | 0.00 | 0.41 | 0.41 | 67 | 1006.2 |
| 20260504021839 | 42 | 356 | 3.0 | 6.0 | 0.00 | 0.41 | 0.41 | 68 | 1006.3 |
| 20260504021337 | 42 | 10 | 2.0 | 2.0 | 0.00 | 0.41 | 0.41 | 67 | 1006.0 |
| 20260504020834 | 42 | 290 | 3.0 | 3.0 | 0.00 | 0.41 | 0.41 | 66 | 1006.4 |
| 20260504020331 | 42 | 289 | 3.0 | 3.0 | 0.00 | 0.41 | 0.41 | 66 | 1006.3 |
| 20260504015827 | 43 | 1 | 2.0 | 3.0 | 0.00 | 0.41 | 0.41 | 65 | 1006.2 |
| 20260504015323 | 43 | 269 | 2.0 | 3.0 | 0.00 | 0.41 | 0.41 | 64 | 1006.0 |
| 20260504014819 | 43 | 30 | 4.0 | 8.0 | 0.00 | 0.41 | 0.41 | 62 | 1005.9 |
| 20260504014315 | 43 | 308 | 6.0 | 8.0 | 0.00 | 0.41 | 0.41 | 62 | 1006.1 |
| 20260504013813 | 44 | 267 | 4.0 | 6.0 | 0.00 | 0.41 | 0.41 | 61 | 1006.0 |
| 20260504013311 | 44 | 290 | 5.0 | 7.0 | 0.00 | 0.41 | 0.41 | 62 | 1005.8 |
| 20260504012807 | 44 | 324 | 5.0 | 6.0 | 0.00 | 0.41 | 0.41 | 60 | 1005.8 |
| 20260504012305 | 44 | 339 | 5.0 | 6.0 | 0.00 | 0.41 | 0.41 | 62 | 1005.9 |
| 20260504011803 | 44 | 9 | 2.0 | 3.0 | 0.00 | 0.41 | 0.41 | 60 | 1005.9 |
| 20260504011259 | 44 | 1 | 2.0 | 2.0 | 0.00 | 0.41 | 0.41 | 59 | 1005.6 |
| 20260504010754 | 44 | 2 | 3.0 | 3.0 | 0.00 | 0.41 | 0.41 | 60 | 1005.7 |
| 20260504010250 | 44 | 343 | 9.0 | 10.0 | 0.00 | 0.41 | 0.41 | 59 | 1005.4 |
| 20260504005747 | 45 | 314 | 3.0 | 6.0 | 0.00 | 0.41 | 0.41 | 59 | 1005.4 |
| 20260504005244 | 45 | 6 | 3.0 | 6.0 | 0.00 | 0.41 | 0.41 | 59 | 1005.3 |
| 20260504004742 | 45 | 298 | 8.0 | 9.0 | 0.00 | 0.41 | 0.41 | 58 | 1005.3 |
| 20260504004239 | 45 | 352 | 5.0 | 7.0 | 0.00 | 0.41 | 0.41 | 59 | 1005.0 |
| 20260504003735 | 45 | 339 | 5.0 | 7.0 | 0.00 | 0.41 | 0.41 | 60 | 1005.0 |
| 20260504003232 | 45 | 310 | 4.0 | 6.0 | 0.00 | 0.41 | 0.41 | 60 | 1005.0 |
| 20260504002729 | 45 | 32 | 4.0 | 6.0 | 0.00 | 0.41 | 0.41 | 60 | 1004.8 |
| 20260504002226 | 45 | 8 | 1.0 | 2.0 | 0.00 | 0.41 | 0.41 | 61 | 1004.8 |
| 20260504001724 | 46 | 25 | 5.0 | 7.0 | 0.00 | 0.41 | 0.41 | 60 | 1004.7 |
| 20260504001220 | 46 | 334 | 4.0 | 5.0 | 0.00 | 0.41 | 0.41 | 61 | 1004.6 |
| 20260504000717 | 46 | 313 | 5.0 | 6.0 | 0.00 | 0.41 | 0.41 | 63 | 1004.4 |
| 20260504000214 | 46 | 343 | 4.0 | 5.0 | 0.00 | 0.41 | 0.41 | 64 | 1004.4 |
| 20260503235712 | 46 | 337 | 5.0 | 6.0 | 0.00 | 0.41 | 0.41 | 63 | 1004.2 |
| 20260503235209 | 46 | 6 | 4.0 | 5.0 | 0.00 | 0.41 | 0.41 | 62 | 1004.2 |
| 20260503234707 | 46 | 332 | 3.0 | 3.0 | 0.00 | 0.41 | 0.41 | 63 | 1004.0 |
| 20260503234205 | 47 | 10 | 5.0 | 6.0 | 0.00 | 0.41 | 0.41 | 62 | 1003.8 |
| 20260503233701 | 47 | 10 | 1.0 | 2.0 | 0.00 | 0.41 | 0.41 | 62 | 1003.9 |
| 20260503233157 | 47 | 36 | 7.0 | 14.0 | 0.00 | 0.41 | 0.41 | 63 | 1003.8 |
| 20260503232654 | 47 | 309 | 5.0 | 7.0 | 0.00 | 0.41 | 0.41 | 68 | 1003.7 |
| 20260503232151 | 47 | 15 | 1.0 | 1.0 | 0.00 | 0.41 | 0.41 | 69 | 1003.5 |
| 20260503231649 | 47 | 289 | 8.0 | 8.0 | 0.00 | 0.41 | 0.41 | 76 | 1003.4 |
| 20260503231145 | 47 | 318 | 0.0 | 1.0 | 0.00 | 0.41 | 0.41 | 84 | 1003.5 |
| 20260503230642 | 47 | 284 | 2.0 | 2.0 | 0.00 | 0.41 | 0.41 | 85 | 1003.3 |
| 20260503230139 | 47 | 328 | 1.0 | 2.0 | 0.00 | 0.41 | 0.41 | 86 | 1003.6 |
| 20260503225637 | 47 | 356 | 1.0 | 1.0 | 0.00 | 0.41 | 0.41 | 86 | 1003.1 |
| 20260503225136 | 47 | 332 | 2.0 | 2.0 | 0.00 | 0.41 | 0.41 | 85 | 1003.4 |
| 20260503224634 | 47 | 320 | 2.0 | 3.0 | 0.00 | 0.41 | 0.41 | 85 | 1003.0 |
| 20260503224132 | 47 | 342 | 1.0 | 1.0 | 0.00 | 0.41 | 0.41 | 85 | 1003.1 |
| 20260503223630 | 47 | 13 | 1.0 | 1.0 | 0.00 | 0.41 | 0.41 | 84 | 1002.9 |
| 20260503223125 | 48 | 20 | 0.0 | 1.0 | 0.00 | 0.41 | 0.41 | 83 | 1003.0 |
| 20260503222623 | 48 | 15 | 4.0 | 6.0 | 0.00 | 0.41 | 0.41 | 82 | 1002.9 |